Wind_Speed
12 12 11 11 11 11 11 12 12 12 12 11 11 12 13 13 12 11 9 2 2 2 5 7 8 10 7 2 2 2 0 2 3 4 3 7 5 5 6 9 4 2 3 12 22
13 13 13 12 12 12 12 12 12 12 12 12 12 12 12 13 14 10 6 7 8 8 5 6 8 8 3 2 2 1 2 3 2 7 2 8 8 10 6 6 4 4 4 22 23
15 15 14 14 14 14 13 13 12 11 11 12 13 12 11 11 12 4 5 2 6 7 5 3 5 6 2 1 2 3 3 3 7 11 5 8 6 6 5 5 9 11 18 26 24
16 16 16 15 15 15 14 12 11 11 10 10 11 11 10 8 3 8 8 7 4 8 5 1 2 1 3 4 1 3 9 6 6 3 6 11 9 5 9 2 4 9 18 28 26
17 17 18 18 17 17 15 12 10 10 9 9 9 9 9 8 13 6 4 8 6 8 6 4 3 2 3 4 8 5 7 9 11 3 4 14 12 6 14 5 8 13 20 24 25
18 17 18 18 18 19 16 12 10 9 9 8 8 8 9 6 10 11 11 4 4 5 6 5 4 0 1 3 2 10 12 13 6 4 9 11 7 7 10 9 15 16 21 22 22
19 19 19 19 19 20 17 11 9 8 7 7 8 9 12 18 8 6 5 8 4 4 4 4 3 2 2 5 5 8 7 7 11 3 2 8 4 10 9 16 18 17 18 19 22
20 21 21 21 20 20 18 11 8 7 5 6 8 9 9 7 14 18 12 10 7 5 2 3 5 2 0 5 3 3 2 4 6 7 3 6 6 2 12 19 18 16 16 17 21
21 21 22 22 21 20 17 9 6 5 5 6 7 6 9 4 6 11 15 13 7 4 4 5 5 2 1 2 1 7 2 5 5 5 4 3 3 7 12 15 16 16 16 18 17
22 22 23 23 22 20 13 6 4 5 6 6 8 5 8 2 3 4 11 13 8 5 6 5 3 3 2 1 2 2 3 5 6 8 5 2 2 2 10 14 16 17 16 16 17
23 23 23 23 22 18 7 3 3 4 7 7 2 5 4 3 8 3 10 14 10 3 5 3 6 9 7 4 2 1 3 7 6 2 2 3 1 3 7 12 15 17 18 19 19
22 23 22 22 21 11 3 2 1 2 7 12 18 21 21 17 5 3 14 10 6 6 4 5 11 6 6 5 4 2 6 7 3 4 1 1 2 2 6 13 16 16 18 19 17
22 23 22 21 16 9 4 3 4 6 4 6 9 11 13 9 7 7 15 12 9 7 7 6 4 9 6 5 3 3 5 3 5 1 4 2 3 3 4 4 9 12 17 18 19
22 23 23 20 9 15 4 3 8 6 2 2 3 3 9 8 5 11 16 11 3 10 8 4 6 7 5 4 3 6 4 5 4 6 2 2 4 5 5 6 5 11 14 16 17
22 23 22 20 16 11 5 2 1 1 3 3 3 5 9 7 6 10 17 11 10 7 6 5 6 9 5 4 7 1 2 2 3 4 1 3 4 3 1 10 10 11 12 12 12
22 22 23 20 15 7 8 6 5 2 3 3 3 4 6 5 2 6 6 8 7 4 1 4 2 3 5 4 7 3 3 3 3 2 3 2 4 6 5 8 7 9 11 9 5
23 21 22 17 9 2 5 8 2 3 3 3 2 4 6 7 4 5 10 10 9 9 9 3 7 2 4 3 4 4 5 3 3 3 3 1 3 9 6 6 6 16 13 9 8
23 22 19 14 9 12 7 2 3 2 3 2 4 1 8 7 4 4 10 12 3 6 8 9 9 11 7 11 4 7 4 3 4 5 5 3 5 1 2 3 7 10 8 12 12
23 20 9 5 8 17 7 3 3 4 2 9 2 3 5 4 3 5 10 15 15 9 6 9 8 2 5 3 4 6 4 3 5 1 3 1 4 11 8 6 7 11 11 17 14
23 16 4 5 12 19 3 5 3 4 3 2 2 2 6 8 9 7 10 9 10 12 10 5 7 2 4 5 5 1 7 3 1 3 6 3 4 6 2 11 9 12 18 17 13
17 5 9 6 16 7 5 5 4 8 5 2 2 4 2 3 8 6 9 6 15 12 9 7 2 4 1 5 6 4 5 3 4 1 3 3 4 2 3 4 14 16 19 19 15
6 1 9 4 4 0 3 4 3 5 3 6 4 8 3 2 4 8 13 11 20 20 11 8 3 3 2 5 1 3 3 6 5 5 0 3 4 2 5 6 14 13 13 19 18
12 2 6 4 2 3 2 2 4 5 5 3 4 7 3 3 5 9 10 8 18 16 17 9 4 4 6 5 4 3 5 4 4 3 6 3 2 3 2 7 12 13 21 21 21
5 1 1 3 0 0 1 2 3 6 8 6 5 1 3 5 10 3 6 5 19 23 26 22 5 5 7 3 1 5 7 8 6 4 6 6 7 3 6 8 14 15 23 25 24
3 1 1 2 3 2 2 2 4 4 5 3 2 3 6 4 3 7 8 3 7 12 9 13 13 4 1 3 4 4 8 11 7 2 5 2 6 3 1 10 20 20 24 25 25
3 3 3 2 3 3 3 3 3 5 3 2 3 10 6 3 5 5 4 6 6 5 9 5 5 4 1 2 6 4 6 6 5 2 7 3 7 1 3 8 17 22 26 28 26
3 4 3 1 1 2 3 2 2 6 3 3 3 4 6 4 2 5 7 4 3 12 8 10 8 6 6 2 5 5 11 9 4 4 4 6 3 5 2 10 20 24 28 29 30
Wind_Direction
9 4 357 349 339 326 314 301 290 280 276 272 274 282 292 297 304 306 312 262 259 234 299 348 5 344 355 32 118 116 157 240 257 210 245 167 148 146 145 142 162 172 154 171 160
7 2 356 350 343 332 320 308 296 285 276 270 268 271 283 295 303 310 280 260 245 248 273 328 358 340 3 75 116 71 330 267 261 249 227 185 158 159 164 167 161 123 126 159 161
7 3 357 349 343 336 325 312 301 289 280 271 265 264 272 291 322 160 138 95 216 212 229 313 343 332 333 28 154 177 243 285 300 247 238 176 173 173 167 203 208 181 155 160 167
4 1 356 351 345 338 328 314 302 290 280 272 266 261 261 270 245 162 123 58 137 173 201 246 328 323 342 349 355 271 253 263 293 275 173 162 170 201 207 284 222 193 164 167 174
360 356 353 351 346 340 331 318 302 289 280 273 267 262 256 245 242 197 287 335 126 150 185 183 154 125 338 322 322 210 314 304 296 231 206 153 185 199 214 278 164 162 165 174 181
356 353 351 348 345 341 334 320 304 289 278 273 266 258 249 241 249 246 256 237 125 161 173 170 161 135 229 297 304 306 308 304 342 212 156 162 184 180 196 166 151 166 174 182 187
354 351 349 346 346 342 335 321 303 288 277 270 269 265 254 249 238 218 205 204 183 172 169 175 177 176 315 322 312 303 326 44 27 349 359 123 146 229 168 163 159 169 185 191 197
351 349 346 345 345 342 335 321 306 287 273 269 272 278 259 257 243 245 235 225 203 181 181 184 188 232 216 312 325 353 36 7 7 12 11 176 252 210 170 171 170 175 195 201 209
346 346 345 343 343 342 334 322 305 280 266 262 269 265 266 248 257 237 227 216 197 183 202 181 163 135 87 341 65 21 29 342 318 14 323 169 285 350 175 186 177 183 202 210 218
341 343 344 341 341 340 330 314 289 268 253 258 252 283 256 197 14 202 185 198 192 167 139 157 126 154 111 298 300 359 351 315 309 345 2 208 197 22 181 191 194 195 206 219 221
338 339 342 341 341 337 321 283 294 285 242 227 196 238 277 263 329 167 172 171 174 149 185 138 198 214 197 161 131 173 282 302 326 342 21 6 291 331 198 202 204 212 215 227 232
336 336 339 341 343 2 345 196 283 266 301 264 251 254 258 274 297 245 166 158 158 181 149 171 210 181 160 174 184 200 287 306 279 350 272 86 15 315 227 217 217 216 226 233 240
334 334 336 341 339 345 321 165 319 281 268 282 247 247 248 233 222 218 176 154 161 167 184 197 155 167 195 161 214 221 264 297 305 75 74 147 271 245 228 242 215 224 235 240 245
331 331 333 340 341 332 201 308 326 182 291 241 229 252 192 192 226 190 179 167 132 191 165 214 157 198 187 231 203 276 205 275 245 196 246 302 277 255 223 254 224 225 231 237 242
327 328 328 331 320 319 221 280 115 115 301 101 168 163 170 191 129 177 175 179 168 155 189 167 190 194 206 226 180 272 200 15 102 139 206 161 256 271 272 243 229 206 227 241 242
323 325 322 322 320 301 216 266 158 238 255 25 130 166 169 215 161 126 164 176 162 144 166 197 176 224 204 183 196 152 212 89 93 119 254 103 255 270 226 238 213 200 219 218 223
319 320 315 307 298 281 192 146 206 229 331 41 358 178 188 180 175 153 171 175 182 183 200 210 220 187 187 240 166 175 193 190 214 199 271 130 215 264 276 252 233 184 194 195 182
321 319 311 291 253 199 160 181 226 252 294 333 324 210 198 172 181 135 158 183 161 188 168 199 212 220 174 218 241 190 237 229 241 256 296 177 237 252 319 193 144 153 173 178 183
324 325 316 258 213 184 169 194 229 210 328 328 359 186 197 216 217 174 183 197 199 201 185 187 229 204 201 132 219 152 195 77 117 101 256 275 265 266 226 190 179 166 168 182 182
329 330 308 250 171 163 177 226 235 228 295 276 295 223 201 195 195 197 184 182 195 203 214 173 206 181 126 132 67 281 132 171 165 221 250 237 271 259 202 206 205 180 189 180 169
331 344 349 143 146 165 204 226 249 255 238 276 282 281 237 188 211 195 202 206 199 194 198 167 240 135 163 205 160 143 191 65 109 281 248 274 284 249 287 243 191 197 194 169 150
344 206 149 102 172 315 198 198 239 268 235 266 265 242 236 193 232 214 208 222 189 165 193 189 177 218 208 112 50 211 181 204 226 189 216 325 297 212 264 220 187 185 169 160 156
336 311 192 359 208 190 249 247 249 252 249 236 244 221 213 251 229 212 198 229 170 177 175 170 218 178 155 126 170 213 178 174 119 143 184 215 291 160 74 153 172 152 157 161 158
335 184 96 212 135 135 86 259 256 247 255 235 264 211 335 283 229 260 224 173 193 187 186 169 171 217 187 158 116 193 177 179 230 192 156 230 297 119 148 167 157 158 170 169 164
326 49 59 176 194 265 252 294 281 288 222 249 203 20 332 282 275 212 219 142 153 148 152 184 211 198 202 280 233 262 189 177 213 195 238 77 220 359 325 202 181 165 166 169 169
326 345 331 280 286 249 181 216 236 299 255 292 326 337 51 33 315 299 226 176 171 176 161 193 153 156 135 342 222 237 183 188 223 200 260 260 279 147 138 167 180 181 174 176 170
325 322 321 263 195 234 210 223 189 336 243 258 327 306 30 30 284 44 41 319 189 160 154 169 154 171 221 70 161 215 207 198 192 204 222 224 245 340 195 186 195 194 192 180 171
Height
1539 1537 1535 1533 1531 1530 1528 1527 1527 1526 1526 1526 1526 1526 1525 1525 1525 1526 1526 1527 1527 1527 1527 1527 1527 1525 1524 1524 1524 1526 1528 1530 1523 1522 1515 1515 1519 1522 1523 1524 1526 1527 1527 1526 1530
1538 1536 1534 1532 1531 1529 1527 1525 1524 1524 1523 1523 1524 1524 1524 1523 1523 1524 1525 1524 1525 1526 1527 1527 1526 1525 1525 1525 1526 1526 1530 1523 1518 1513 1513 1514 1517 1521 1523 1524 1525 1526 1526 1529 1532
1538 1536 1534 1531 1529 1527 1525 1523 1522 1521 1521 1521 1521 1522 1522 1522 1522 1521 1522 1522 1523 1525 1526 1527 1526 1526 1525 1525 1526 1526 1525 1518 1513 1513 1514 1516 1518 1519 1520 1522 1522 1523 1526 1529 1533
1537 1535 1533 1530 1528 1526 1523 1521 1520 1519 1519 1519 1519 1520 1520 1522 1524 1520 1520 1522 1522 1524 1526 1526 1526 1526 1524 1524 1525 1525 1519 1518 1514 1511 1512 1515 1517 1518 1519 1520 1520 1522 1524 1528 1531
1537 1534 1531 1529 1526 1524 1521 1519 1517 1517 1516 1517 1517 1518 1519 1520 1518 1519 1519 1521 1522 1523 1525 1526 1526 1525 1524 1524 1523 1523 1517 1515 1512 1509 1513 1514 1516 1517 1518 1519 1520 1523 1526 1529 1533
1536 1533 1530 1527 1524 1521 1519 1517 1515 1514 1514 1515 1515 1516 1518 1519 1515 1517 1519 1521 1521 1522 1523 1524 1525 1524 1524 1523 1523 1519 1517 1512 1510 1509 1511 1515 1517 1517 1517 1518 1521 1523 1527 1528 1532
1535 1532 1529 1526 1523 1519 1516 1514 1513 1513 1513 1513 1513 1514 1514 1511 1513 1514 1516 1519 1520 1521 1522 1522 1523 1524 1523 1521 1521 1518 1514 1510 1512 1511 1513 1516 1518 1513 1515 1519 1520 1524 1527 1529 1531
1534 1531 1527 1524 1521 1518 1514 1512 1511 1511 1512 1512 1512 1512 1509 1508 1509 1511 1514 1516 1518 1519 1520 1521 1521 1522 1522 1522 1521 1519 1516 1523 1516 1513 1513 1515 1517 1512 1515 1517 1520 1524 1526 1529 1530
1532 1529 1526 1522 1519 1516 1513 1511 1510 1510 1510 1510 1511 1511 1507 1505 1506 1507 1509 1513 1516 1518 1518 1519 1520 1521 1522 1522 1522 1523 1530 1528 1520 1515 1513 1513 1514 1517 1515 1518 1520 1523 1525 1527 1529
1530 1527 1524 1520 1517 1514 1511 1509 1509 1509 1509 1509 1509 1513 1505 1505 1504 1504 1506 1511 1514 1516 1517 1519 1520 1519 1522 1522 1536 1534 1530 1526 1527 1515 1514 1514 1515 1518 1517 1518 1519 1521 1524 1525 1527
1528 1525 1522 1518 1514 1511 1509 1509 1511 1510 1507 1504 1505 1503 1502 1503 1503 1503 1504 1508 1512 1514 1514 1517 1517 1520 1519 1521 1523 1526 1528 1528 1518 1517 1517 1522 1518 1518 1517 1518 1519 1520 1522 1523 1525
1526 1523 1520 1517 1513 1509 1508 1508 1508 1509 1505 1500 1500 1500 1500 1502 1504 1502 1503 1507 1510 1513 1515 1518 1517 1516 1518 1521 1523 1525 1527 1522 1519 1517 1517 1520 1520 1518 1516 1514 1517 1519 1520 1522 1524
1524 1520 1517 1515 1511 1509 1507 1508 1507 1506 1506 1497 1496 1496 1498 1500 1500 1500 1502 1503 1507 1513 1513 1515 1514 1517 1516 1519 1522 1523 1524 1522 1524 1519 1518 1519 1519 1518 1514 1515 1516 1518 1519 1520 1521
1521 1518 1515 1513 1512 1508 1507 1507 1505 1504 1505 1496 1494 1493 1495 1496 1497 1497 1500 1503 1507 1509 1513 1513 1513 1514 1515 1518 1517 1522 1515 1518 1520 1521 1528 1521 1532 1518 1513 1512 1514 1514 1516 1518 1519
1519 1515 1512 1510 1509 1507 1508 1506 1506 1506 1516 1493 1492 1493 1492 1495 1494 1495 1498 1501 1504 1507 1511 1511 1511 1511 1513 1513 1514 1516 1516 1518 1518 1521 1524 1528 1531 1507 1516 1512 1508 1512 1514 1515 1517
1516 1513 1509 1507 1505 1505 1504 1505 1507 1511 1516 1492 1491 1492 1493 1492 1491 1494 1497 1500 1502 1506 1508 1506 1508 1508 1506 1508 1511 1512 1514 1518 1522 1521 1533 1532 1531 1512 1510 1504 1504 1510 1512 1515 1517
1512 1509 1505 1503 1504 1503 1504 1506 1510 1515 1495 1494 1491 1491 1490 1490 1490 1491 1494 1497 1502 1514 1514 1507 1504 1504 1505 1509 1511 1510 1513 1527 1534 1534 1535 1532 1532 1509 1500 1502 1503 1505 1511 1514 1516
1507 1504 1500 1498 1499 1501 1505 1506 1518 1502 1497 1491 1490 1491 1491 1488 1489 1491 1494 1499 1500 1499 1508 1513 1520 1501 1500 1500 1502 1508 1504 1519 1545 1537 1526 1533 1527 1503 1502 1502 1504 1506 1509 1512 1514
1502 1499 1495 1494 1494 1498 1505 1507 1502 1500 1495 1493 1489 1492 1490 1488 1488 1490 1492 1493 1493 1495 1502 1510 1510 1496 1496 1497 1501 1510 1511 1507 1524 1538 1531 1522 1513 1498 1499 1503 1504 1506 1510 1510 1514
1498 1495 1494 1492 1493 1498 1501 1503 1499 1496 1494 1492 1494 1490 1491 1487 1488 1489 1492 1487 1490 1491 1491 1499 1508 1495 1495 1497 1501 1498 1506 1514 1517 1539 1541 1520 1524 1507 1499 1499 1501 1504 1505 1510 1515
1496 1494 1493 1492 1496 1499 1498 1498 1496 1493 1494 1492 1491 1489 1486 1486 1483 1488 1485 1483 1482 1488 1492 1495 1497 1500 1498 1496 1496 1506 1505 1513 1509 1520 1523 1529 1510 1494 1494 1492 1494 1499 1503 1509 1515
1496 1494 1495 1495 1498 1499 1496 1495 1494 1491 1491 1490 1488 1486 1483 1482 1482 1485 1480 1474 1475 1481 1490 1490 1493 1501 1494 1493 1495 1493 1497 1498 1504 1525 1525 1521 1508 1491 1491 1492 1494 1497 1506 1509 1512
1497 1494 1495 1495 1494 1495 1495 1492 1491 1489 1488 1486 1483 1481 1480 1480 1485 1476 1473 1468 1472 1476 1482 1489 1496 1503 1497 1495 1496 1493 1497 1497 1499 1501 1518 1516 1503 1491 1493 1492 1495 1498 1503 1507 1510
1499 1493 1495 1496 1495 1494 1493 1491 1489 1486 1485 1484 1480 1479 1479 1476 1474 1471 1471 1468 1469 1470 1473 1479 1490 1489 1497 1492 1488 1494 1493 1495 1489 1499 1507 1501 1492 1489 1494 1494 1494 1497 1499 1503 1506
1500 1497 1498 1493 1494 1494 1494 1492 1489 1486 1483 1481 1478 1478 1478 1477 1470 1472 1466 1467 1470 1474 1476 1476 1486 1493 1494 1494 1493 1489 1487 1494 1494 1494 1495 1493 1495 1485 1492 1491 1491 1492 1496 1500 1504
1501 1499 1497 1495 1495 1494 1493 1489 1487 1484 1484 1480 1479 1476 1475 1477 1477 1473 1462 1462 1462 1473 1473 1478 1490 1490 1494 1492 1490 1491 1488 1490 1492 1495 1495 1494 1492 1486 1491 1489 1493 1493 1493 1495 1501
1501 1499 1499 1493 1493 1492 1487 1486 1486 1487 1481 1481 1480 1475 1471 1474 1475 1474 1470 1465 1461 1459 1469 1474 1483 1488 1494 1496 1491 1498 1485 1487 1487 1487 1486 1492 1481 1484 1486 1487 1487 1489 1489 1491 1495